Left ArrowRight Arrow

44.31136, -96.79839

Hourly Observations for June 4, 2020

Temp ( °F °C ) Dew Point ( °F °C ) Humidity (%) Winds ( mph kmh ) Pressure ( in mb ) Visibility ( mi km ) Precip ( " mm )
12:56 am 00:56 Clear 64 17.8 56 13.3 75 75 Calm 29.81 1010 10 16 0.00 0.00
1:56 am 01:56 Clear 63 17.2 57 13.9 81 81 Calm 29.81 1009 10 16 0.00 0.00
2:56 am 02:56 Clear 62 16.7 57 13.9 84 84 Calm 29.78 1009 10 16 0.00 0.00
3:56 am 03:56 Clear 62 16.7 57 13.9 84 84 ESE 5 7 29.78 1008 10 16 0.00 0.00
4:56 am 04:56 Clear 56 13.3 54 12.2 93 93 Calm 29.79 1009 10 16 0.00 0.00
5:56 am 05:56 Partly Cloudy 56 13.3 55 12.8 97 97 Calm 29.83 1010 10 16 0.00 0.00
6:56 am 06:56 Sunny 61 16.1 57 13.9 87 87 Calm 29.82 1010 10 16 0.00 0.00
7:56 am 07:56 Sunny 67 19.4 60 15.6 79 79 SW 3 6 29.83 1010 10 16 0.00 0.00
8:56 am 08:56 Sunny 70 21.1 59 15 68 68 Calm 29.84 1011 10 16 0.00 0.00
9:56 am 09:56 Sunny 74 23.3 60 15.6 62 62 VRB 3 6 29.85 1011 10 16 0.00 0.00
10:56 am 10:56 Sunny 76 24.4 59 15 56 56 VRB 5 7 29.84 1010 10 16 0.00 0.00
11:56 am 11:56 Sunny 79 26.1 59 15 50 50 Calm 29.83 1010 10 16 0.00 0.00
12:56 pm 12:56 Sunny 79 26.1 58 14.4 49 49 Calm 29.82 1010 10 16 0.00 0.00
1:56 pm 13:56 Sunny 78 25.6 56 13.3 47 47 NNE 9 15 29.80 1009 10 16 0.00 0.00
2:38 pm 14:38 Sunny 79 26 54 12 42 42 NNE 14 22 29.69 1006 10 16 0.00 0.00
2:56 pm 14:56 Sunny 81 27.2 55 12.8 41 41 NNE 9 15 29.79 1009 10 16 0.00 0.00
3:56 pm 15:56 Sunny 82 27.8 56 13.3 41 41 undefined N/A 29.77 1008 10 16 0.00 0.00
4:56 pm 16:56 Sunny 83 28.3 54 12.2 37 37 undefined N/A 29.75 1008 10 16 0.00 0.00
5:56 pm 17:56 Sunny 83 28.3 52 11.1 34 34 ENE 8 13 29.74 1007 10 16 0.00 0.00
6:56 pm 18:56 Sunny 82 27.8 51 10.6 34 34 NE 10 17 29.72 1006 10 16 0.00 0.00
7:56 pm 19:56 Sunny 80 26.7 50 10 35 35 ENE 10 17 29.72 1007 10 16 0.00 0.00
8:56 pm 20:56 Sunny 78 25.6 51 10.6 39 39 E 7 11 29.72 1006 10 16 0.00 0.00
9:40 pm 21:40 Cloudy with Nearby Thunderstorms 72 22 54 12 53 53 NNW 13 20 29.71 1006 10 16 0.00 0.00
9:56 pm 21:56 Cloudy with Thunderstorms 71 21.7 51 10.6 49 49 NNW 18 30 29.79 1009 10 16 0.00 0.00
10:20 pm 22:20 Mostly Cloudy with Light Rain 64 18 54 12 68 68 NNE 16 26 29.76 1008 10 16 0.00 0.00
10:56 pm 22:56 Partly Cloudy 64 17.8 52 11.1 65 65 NE 14 22 29.81 1009 10 16 0.00 0.00
11:56 pm 23:56 Clear 63 17.2 52 11.1 68 68 NE 9 15 29.81 1010 10 16 0.00 0.00

Powered by Vaisala Xweather